Regional Weather Roundup
Issued by NWS

Home | Current Version | Previous Version | Graphics & Text | Print | Product List | Glossary On
Versions: 1 2 3 4 5 6 7 8 9 10 11 12 13 14 15 16 17 18 19 20 21 22 23 24 25 26 27 28 29 30 31 32 33 34 35 36 37 38 39 40 41 42 43 44 45 46 47 48 49 50
000
ASUS43 KTOP 192108
RWRKS

WEATHER ROUNDUP FOR KANSAS
NATIONAL WEATHER SERVICE GOODLAND KS
400 PM CDT SAT APR 19 2014

NOTE:  "FAIR" INDICATES FEW OR NO CLOUDS BELOW 12,000 FEET WITH NO
SIGNIFICANT WEATHER AND/OR OBSTRUCTIONS TO VISIBILITY.

KSZ001>006-013>018-027>032-041>047-192200-
NORTHWEST KANSAS

CITY           SKY/WX    TMP DP  RH WIND       PRES   REMARKS
GOODLAND       SUNNY     71  46  40 NE16G25   29.98R
HAYS           PTSUNNY   82  46  28 SW25G32   29.90S
HILL CITY      CLOUDY    82  46  28 VRB5      29.88F
RUSSELL        PTSUNNY   81  49  32 S25G36    29.90F
$$

KSZ061>065-074>080-084>089-192200-
SOUTHWEST KANSAS

CITY           SKY/WX    TMP DP  RH WIND       PRES   REMARKS
DODGE CITY     CLOUDY    76  48  37 S23G30    29.97F
ELKHART          N/A     79  43  28 S20         N/A
GARDEN CITY    CLOUDY    76  47  35 S22G30    29.94F
GREAT BEND     CLOUDY    79  50  36 S28G35    29.92F
LIBERAL        PTSUNNY   81  46  30 S18G28    29.97F
PRATT          CLOUDY    77  48  36 SW22G30   30.00S
$$

KSZ066>073-081>083-090>101-192200-
SOUTHEAST KANSAS

CITY           SKY/WX    TMP DP  RH WIND       PRES   REMARKS
CHANUTE        SUNNY     77  46  33 S17       30.09F
COFFEYVILLE    SUNNY     77  43  29 SW15      30.09F
HUTCHINSON     MOSUNNY   81  49  32 S24G36    29.98F
MEDICINE LODGE   N/A     81  50  33 S20G31    29.99S
NEWTON         PTSUNNY   81  46  30 S26       30.04F
PARSONS        SUNNY     78  43  28 SE16G25   30.10F
WICHITA INTL   PTSUNNY   79  48  33 S22G36    30.00F
WICHITA JABRA  MOSUNNY   77  48  35 S23G33    30.01F
WICHITA MCCONL MOSUNNY   79  47  32 SE23G31   30.02F
WINFIELD       MOSUNNY   80  50  34 S15G25    30.05F
$$

KSZ007>012-019>026-033>040-048>060-102>105-192200-
NORTHEAST KANSAS

CITY           SKY/WX    TMP DP  RH WIND       PRES   REMARKS
CONCORDIA      PTSUNNY   80  49  33 S24G35    29.95F
EMPORIA        PTSUNNY   77  43  29 S21G31    30.04F
LAWRENCE       SUNNY     79  45  29 S20G29    30.06F
OLATHE IND     SUNNY     76  46  34 S18G26    30.08F
OLATHE EXE     SUNNY     74  45  35 S20G26    30.08F
SALINA         MOSUNNY   82  49  31 S23G37    29.96F
TOPEKA BILLARD SUNNY     79  45  29 S15G28    30.04F
TOPEKA FORBES  SUNNY     77  43  29 S20G33    30.04F
$$



USA.gov is the U.S. government's official web portal to all federal, state and local government web resources and services.